sat.trackr.live / text

‹ back to catalog

SITRO-AIS 13

NORAD 61743 · 2024-199J

PAYLOAD ACTIVE UNKNOWN

§ Identity

Operator
Country
CIS
Launch date
2024-11-04
Launch site
VOSTO
Launch vehicle
Mass (kg)
RCS (m²)

External: N2YO · Heavens-Above · Gunter

§ Orbital elements

Epoch: 2026-05-25T03:34:16.218048Z

Period
96.15 min
Inclination
97.3242°
Eccentricity
0.0007090
Mean motion
14.97735534 rev/d
Perigee alt
569.0 km
Apogee alt
578.8 km
Semi-major
6,952.0 km
B*
1.9816e-4
RAAN
346.1072°
Arg perigee
137.4357°
Mean anomaly
222.7417°
Rev number
12,854

§ Raw data

SITRO-AIS 131 61743U 24199J   26145.14879882  .00002271  00000+0  19816-3 0  99902 61743  97.3242 346.1072 0007090 137.4357 222.7417 14.97735534128542

JSON: /api/v1/satellites/61743 · /tle

For live sub-satellite position, see the globe view (requires WebGL).

§ Visibility from observer

Set your observer location to see the next 7 days of passes ≥ 10°. The values pass through the URL so the page stays shareable.

No JS? Fill the form by hand. The geolocation button needs JavaScript.

§ Radio — SatNOGS DB

ModeDescriptionDownlinkUplink
GMSK USP Mode U - GMSK2k4 - USP 401.015 MHz

1 transmitter · refreshed weekly from db.satnogs.org